TimeCDT,TemperatureF,Dew PointF,Humidity,Sea Level PressureIn,VisibilityMPH,Wind Direction,Wind SpeedMPH,Gust SpeedMPH,PrecipitationIn,Events,Conditions,WindDirDegrees,DateUTC
12:15 AM,51.8,46.4,82,29.51,10.0,SSE,13.8,-,N/A,,Clear,160,2012-10-17 05:15:00
12:35 AM,51.8,46.4,82,29.51,10.0,SSE,13.8,21.9,N/A,,Clear,160,2012-10-17 05:35:00
12:55 AM,51.8,46.4,82,29.50,10.0,SSE,13.8,18.4,N/A,,Clear,160,2012-10-17 05:55:00
1:15 AM,51.8,46.4,82,29.50,10.0,South,15.0,19.6,N/A,,Clear,170,2012-10-17 06:15:00
1:35 AM,51.8,46.4,82,29.50,10.0,South,11.5,19.6,N/A,,Clear,170,2012-10-17 06:35:00
1:55 AM,51.8,46.4,82,29.49,10.0,SSE,15.0,-,N/A,,Clear,160,2012-10-17 06:55:00
2:15 AM,51.8,46.4,82,29.49,10.0,SSE,12.7,19.6,N/A,,Clear,160,2012-10-17 07:15:00
2:35 AM,51.8,46.4,82,29.48,10.0,SSE,11.5,17.3,N/A,,Clear,150,2012-10-17 07:35:00
2:55 AM,51.8,46.4,82,29.46,10.0,SSE,11.5,-,N/A,,Clear,150,2012-10-17 07:55:00
3:15 AM,51.8,48.2,88,29.45,10.0,SSE,11.5,-,N/A,,Clear,150,2012-10-17 08:15:00
3:35 AM,51.8,48.2,88,29.45,10.0,SSE,11.5,16.1,N/A,,Clear,150,2012-10-17 08:35:00
3:55 AM,51.8,48.2,88,29.45,10.0,SSE,10.4,-,N/A,,Clear,160,2012-10-17 08:55:00
4:15 AM,51.8,48.2,88,29.45,10.0,SSE,9.2,-,N/A,,Clear,150,2012-10-17 09:15:00
4:35 AM,51.8,48.2,88,29.44,8.0,SSE,8.1,-,N/A,,Clear,150,2012-10-17 09:35:00
4:55 AM,50.0,48.2,94,29.45,7.0,SSE,5.8,-,N/A,,Clear,150,2012-10-17 09:55:00
5:15 AM,50.0,48.2,94,29.44,5.0,SSE,6.9,-,N/A,,Clear,150,2012-10-17 10:15:00
5:35 AM,48.2,48.2,100,29.44,4.0,SE,5.8,-,N/A,,Clear,140,2012-10-17 10:35:00
5:55 AM,48.2,46.4,93,29.44,3.0,SE,4.6,-,N/A,,Clear,130,2012-10-17 10:55:00
6:15 AM,48.2,46.4,93,29.44,3.0,SSE,4.6,-,N/A,,Clear,150,2012-10-17 11:15:00
6:35 AM,48.2,46.4,93,29.44,3.0,SSE,4.6,-,N/A,,Clear,150,2012-10-17 11:35:00
6:55 AM,48.2,46.4,93,29.44,3.0,SSE,5.8,-,N/A,,Clear,160,2012-10-17 11:55:00
7:15 AM,48.2,46.4,93,29.44,2.5,South,6.9,-,N/A,,Clear,170,2012-10-17 12:15:00
7:35 AM,48.2,46.4,93,29.44,3.0,South,6.9,-,N/A,,Clear,170,2012-10-17 12:35:00
7:55 AM,50.0,48.2,94,29.45,4.0,South,6.9,-,N/A,,Clear,170,2012-10-17 12:55:00
8:15 AM,51.8,48.2,88,29.44,6.0,South,6.9,-,N/A,,Clear,170,2012-10-17 13:15:00
8:35 AM,53.6,48.2,82,29.43,9.0,South,9.2,-,N/A,,Clear,170,2012-10-17 13:35:00
8:55 AM,55.4,50.0,82,29.43,10.0,South,9.2,-,N/A,,Clear,170,2012-10-17 13:55:00
9:15 AM,57.2,50.0,77,29.42,10.0,South,8.1,-,N/A,,Clear,180,2012-10-17 14:15:00
9:35 AM,59.0,51.8,77,29.43,10.0,SSE,10.4,-,N/A,,Clear,160,2012-10-17 14:35:00
9:55 AM,57.2,50.0,77,29.43,10.0,South,16.1,-,N/A,,Clear,180,2012-10-17 14:55:00
10:15 AM,57.2,50.0,77,29.43,10.0,South,17.3,21.9,N/A,,Clear,170,2012-10-17 15:15:00
10:35 AM,57.2,48.2,72,29.43,10.0,South,19.6,26.5,N/A,,Clear,170,2012-10-17 15:35:00
10:55 AM,59.0,50.0,72,29.43,10.0,South,13.8,23.0,N/A,,Clear,180,2012-10-17 15:55:00
11:15 AM,59.0,48.2,67,29.43,10.0,South,16.1,20.7,N/A,,Clear,170,2012-10-17 16:15:00
11:55 AM,59.0,50.0,72,29.42,10.0,South,13.8,21.9,N/A,,Clear,170,2012-10-17 16:55:00
12:15 PM,57.2,50.0,77,29.41,10.0,South,15.0,23.0,N/A,,Clear,170,2012-10-17 17:15:00
12:35 PM,57.2,50.0,77,29.41,10.0,South,13.8,24.2,N/A,,Scattered Clouds,180,2012-10-17 17:35:00
12:55 PM,57.2,50.0,77,29.40,10.0,South,20.7,26.5,N/A,,Mostly Cloudy,180,2012-10-17 17:55:00
1:15 PM,55.4,48.2,77,29.39,10.0,South,17.3,26.5,N/A,,Overcast,170,2012-10-17 18:15:00
1:35 PM,55.4,48.2,77,29.39,10.0,South,18.4,24.2,N/A,,Overcast,170,2012-10-17 18:35:00
1:55 PM,57.2,48.2,72,29.38,10.0,South,17.3,26.5,N/A,,Mostly Cloudy,170,2012-10-17 18:55:00
2:15 PM,55.4,48.2,77,29.38,10.0,South,15.0,25.3,N/A,,Mostly Cloudy,170,2012-10-17 19:15:00
2:35 PM,55.4,48.2,77,29.38,10.0,South,18.4,29.9,N/A,,Mostly Cloudy,170,2012-10-17 19:35:00
2:55 PM,57.2,48.2,72,29.38,10.0,South,20.7,26.5,N/A,,Overcast,180,2012-10-17 19:55:00
3:15 PM,55.4,50.0,82,29.38,10.0,South,18.4,29.9,N/A,,Mostly Cloudy,180,2012-10-17 20:15:00
3:35 PM,57.2,50.0,77,29.38,10.0,South,20.7,31.1,N/A,,Overcast,170,2012-10-17 20:35:00
3:55 PM,57.2,50.0,77,29.38,10.0,South,23.0,29.9,N/A,,Overcast,180,2012-10-17 20:55:00
4:15 PM,57.2,50.0,77,29.37,10.0,South,24.2,32.2,N/A,,Mostly Cloudy,170,2012-10-17 21:15:00
4:35 PM,57.2,50.0,77,29.36,10.0,South,23.0,33.4,N/A,,Partly Cloudy,170,2012-10-17 21:35:00
4:55 PM,57.2,50.0,77,29.36,10.0,South,17.3,32.2,N/A,,Mostly Cloudy,180,2012-10-17 21:55:00
5:15 PM,55.4,48.2,77,29.37,10.0,South,18.4,26.5,N/A,,Scattered Clouds,180,2012-10-17 22:15:00
5:35 PM,55.4,48.2,77,29.37,10.0,South,15.0,24.2,N/A,,Partly Cloudy,170,2012-10-17 22:35:00
5:55 PM,55.4,48.2,77,29.37,10.0,South,17.3,21.9,N/A,,Scattered Clouds,170,2012-10-17 22:55:00
6:15 PM,55.4,48.2,77,29.37,10.0,South,18.4,25.3,N/A,,Overcast,180,2012-10-17 23:15:00
6:55 PM,53.6,50.0,88,29.37,10.0,South,16.1,-,N/A,,Overcast,180,2012-10-17 23:55:00
7:15 PM,55.4,50.0,82,29.37,10.0,South,13.8,-,N/A,,Overcast,170,2012-10-18 00:15:00
7:35 PM,53.6,51.8,94,29.36,10.0,South,12.7,-,N/A,,Overcast,170,2012-10-18 00:35:00
7:55 PM,53.6,51.8,94,29.35,10.0,South,10.4,17.3,N/A,,Overcast,170,2012-10-18 00:55:00
8:15 PM,55.4,51.8,88,29.35,10.0,South,13.8,19.6,N/A,,Overcast,170,2012-10-18 01:15:00
8:55 PM,53.6,53.6,100,29.34,4.0,SSE,10.4,-,0.02,,Overcast,160,2012-10-18 01:55:00
9:15 PM,53.6,53.6,100,29.34,5.0,SSE,15.0,20.7,N/A,,Overcast,160,2012-10-18 02:15:00
9:35 PM,53.6,53.6,100,29.33,5.0,SSE,15.0,26.5,0.01,,Overcast,160,2012-10-18 02:35:00
9:55 PM,55.4,53.6,94,29.33,3.0,SSE,18.4,27.6,0.05,,Overcast,160,2012-10-18 02:55:00
10:15 PM,55.4,53.6,94,29.32,2.5,SSE,20.7,25.3,0.01,,Overcast,160,2012-10-18 03:15:00
10:35 PM,53.6,53.6,100,29.31,3.0,SSE,20.7,28.8,0.02,,Overcast,160,2012-10-18 03:35:00
10:55 PM,55.4,53.6,94,29.30,3.0,SSE,17.3,28.8,0.03,,Overcast,150,2012-10-18 03:55:00
11:15 PM,55.4,53.6,94,29.30,9.0,SSE,17.3,25.3,0.01,,Overcast,150,2012-10-18 04:15:00
11:35 PM,53.6,53.6,100,29.29,8.0,SSE,17.3,25.3,0.02,,Overcast,150,2012-10-18 04:35:00
11:55 PM,53.6,51.8,94,29.28,7.0,SSE,17.3,29.9,0.07,,Overcast,150,2012-10-18 04:55:00